Weather in Dili

East Timor     8°33′33″S   125°33′37″E
temp.,
°C
wind,
m/s
gust,
m/s
humid.,
%
clouds,
%
prec.,
mm/h
press.,
hPa
HPBL,
m
20 january, thu
thu2000:00+26ne2280100 0.4 1007455
03:00+26w3384100 1.4 1005368
06:00+26wsw4479100 0.8 1005393
09:00+26w6686100 3.8 1007375
12:00+26w8886100 2.6 1007469
15:00+26w101089100 5.0 1005637
18:00+26w91090100 5.4 1005677
21:00+25w91194100 31.6 1006654
21 january, fri
fri2100:00+25w91192100 17.5 1007654
03:00+25w111389100 27.4 1005822
06:00+25wsw101189100 9.2 1006655
09:00+25wsw81189100 13.9 1008757
12:00+25w9986100 9.4 1007627
15:00+26wsw91081100 9.8 1005824
18:00+26wsw6877100 0.1 1006682
21:00+26wsw5875100 0.1 1008621
22 january, sat
sat2200:00+26wsw5775100 0.0 1007504
03:00+26wsw4576100 0.1 1005315
06:00+27wsw3471100 0.0 1006381
09:00+27w2369100 0.0 1008397
12:00+28nw337380 0.0 1007579
15:00+28nw3467100 0.1 1005675
18:00+27wnw667845 1.0 1005526
21:00+27wnw337924 2.9 1007397
23 january, sun
sun2300:00+27wsw2277100 0.7 1006299
03:00+26sw1175100 0.8 1005242
06:00+26ssw1174100 0.0 1006209
09:00+27wnw1271100 0.0 1007325
12:00+28nw347075 0.0 1006520
15:00+29wnw57715 0.1 1004570
18:00+29wnw57755 0.7 1004328
21:00+28wnw347847 0.8 1006320
24 january, mon
mon2400:00+27wnw12765 0.0 1006413
03:00+27wnw017617 0.0 1004355
06:00+26s21785 0.0 1004123
09:00+27nw1174100 0.0 1006266
12:00+28nne22725 0.0 1005421
15:00+29nw437460 0.2 1003552
18:00+28wnw337480 0.7 1003346
21:00+28wnw017658 0.9 1005214